Indian Head, Saskatchewan

4:55 PM CST on March 26, 2017 (GMT -0600)
Indian Head

Weather History for CWBD - October, 2013

Change the Weather History Date:

Sunday, October 13, 2013

  Actual Average Record
Temperature  
Mean Temperature 36 °F -  
Max Temperature 51 °F - - ()
Min Temperature 20 °F - - ()
Degree Days  
Heating Degree Days 30    
Moisture  
Dew Point 23 °F    
Average Humidity 67    
Maximum Humidity 95    
Minimum Humidity 27    
Precipitation  
Precipitation 0.00 in - - ()
Sea Level Pressure  
Sea Level Pressure 30.36 in    
Wind  
Wind Speed 5 mph ()    
Max Wind Speed 8 mph    
Max Gust Speed -    
T = Trace of Precipitation, MM = Missing Value Source: Averaged Metar Reports

Daily Weather History Graph

Daily Weather History Graph

Search for Another Location

Airport or City:

Trip Planner

Search our weather history database for the weather conditions in past years. The results will help you decide how hot, cold, wet, or windy it might be!

Date:

Astronomy

Oct. 13, 2013 Rise Set
Actual Time 7:14 AM CST 6:06 PM CST
Civil Twilight 6:41 AM CST 6:38 PM CST
Nautical Twilight 6:03 AM CST 7:16 PM CST
Astronomical Twilight 5:25 AM CST 7:54 PM CST
Moon 3:28 PM CST (10/13) 12:53 AM CST (10/13)
Length of Visible Light 11h 57m
Length of Day
10h 51m
Waxing Gibbous, 70% of the Moon is Illuminated
Oct 13
Waxing Gibbous
Oct 18
Full
Oct 26
Last Quarter
Nov 3
New
Nov 9
First Quarter

Hourly Weather History & Observations

Time (CST) Temp. Windchill Dew Point Humidity Pressure Visibility Wind Dir Wind Speed Gust Speed Precip Events Conditions
12:00 AM 26 °F - 22 °F 80% 30.25 in - West 8.1 mph - -  
1:00 AM 27.1 °F 18.9 °F 23.7 °F 87% 30.27 in - WSW 8.1 mph - N/A   Unknown
2:00 AM 28.6 °F 21.5 °F 24.4 °F 84% 30.28 in - SW 6.9 mph - N/A   Unknown
3:00 AM 22.3 °F 16.1 °F 20.3 °F 92% 30.29 in - SSW 4.6 mph - N/A   Unknown
4:00 AM 22.5 °F 15.1 °F 21.0 °F 94% 30.30 in - SSW 5.8 mph - N/A   Unknown
5:00 AM 24.1 °F 18.2 °F 21.6 °F 90% 30.31 in - SSW 4.6 mph - N/A   Unknown
6:00 AM 22 °F - 19 °F 85% 30.34 in - NNW 4.6 mph - -  
6:00 AM 22.1 °F 13.7 °F 19.4 °F 89% 30.33 in - North 6.9 mph - N/A   Unknown
7:00 AM 22.3 °F - 21.0 °F 95% 30.36 in - South 2.3 mph - N/A   Unknown
8:00 AM 22.8 °F 16.7 °F 20.7 °F 91% 30.38 in - SW 4.6 mph - N/A   Unknown
9:00 AM 32.2 °F - 28.8 °F 87% 30.39 in - NNE 2.3 mph - N/A   Unknown
10:00 AM 38.8 °F - 30.7 °F 73% 30.39 in - West 2.3 mph - N/A   Unknown
11:00 AM 45.5 °F - 29.1 °F 53% 30.39 in - NNE 1.2 mph - N/A   Unknown
12:00 PM 48 °F - 25 °F 27% 30.38 in - NW 3.5 mph - -  
12:00 PM 47.7 °F - 25.0 °F 41% 30.38 in - West 1.2 mph - N/A   Unknown
1:00 PM 47.1 °F - 24.3 °F 41% 30.37 in - NW 3.5 mph - N/A   Unknown
2:00 PM 48.4 °F - 23.4 °F 37% 30.34 in - NE 1.2 mph - N/A   Unknown
3:00 PM 50.4 °F - 24.1 °F 36% 30.35 in - NE 4.6 mph - N/A   Unknown
4:00 PM 48.6 °F - 22.6 °F 36% 30.35 in - NE 5.8 mph - N/A   Unknown
5:00 PM 47.1 °F - 21.6 °F 36% 30.35 in - NNW 6.9 mph - N/A   Unknown
6:00 PM 42 °F - 22 °F 31% 30.37 in - NNW 4.6 mph - -  
6:00 PM 42.1 °F 39.2 °F 21.7 °F 44% 30.37 in - NNW 4.6 mph - N/A   Unknown
7:00 PM 32.5 °F 29.3 °F 19.4 °F 58% 30.40 in - WNW 3.5 mph - N/A   Unknown
8:00 PM 28.4 °F 23.3 °F 20.7 °F 73% 30.42 in - SW 4.6 mph - N/A   Unknown
9:00 PM 28.0 °F 22.8 °F 21.2 °F 76% 30.41 in - WSW 4.6 mph - N/A   Unknown
10:00 PM 23.5 °F - 18.3 °F 80% 30.42 in - SSW 2.3 mph - N/A   Unknown
11:00 PM 23.0 °F 15.8 °F 18.5 °F 83% 30.41 in - South 5.8 mph - N/A   Unknown